[[{"header":{"parameterUnit":"m.s-1","parameterCategory":1,"la1":30.2991,"la2":30.254,"lo1":-89.0895,"lo2":-89.0444,"dy":0.0017,"dx":0.0017,"nx":28,"ny":28,"refTime":"2025-11-20T03:00:00:Z","depth":0,"parameterNumber":2,"parameterNumberName":"U-component_of_WINDS"},"data":[0,0,0,0,0,0,0,0,0,0,0,0,0,0,0,0,0,0,0,0,0,0,0,0,0,0,0,0,0,0,0,0,0,0,0,0,0,0,0,0,0,0,0,0,0,0,0,0,0,0,0,0,0,0,0,0,0,0,-2.0247,-2.0247,0,-2.0263,-2.0263,-2.0263,-2.0249,-2.0248,-2.0248,-2.0247,-2.0264,-2.0265,-2.0266,0,0,0,0,0,0,0,0,0,0,0,0,0,-2.0206,-2.0207,-2.0247,-2.0247,-2.0247,-2.0263,-2.0263,-2.0263,-2.0249,-2.0248,-2.0247,-2.0247,-2.0263,-2.0264,-2.0266,0,0,0,0,0,0,0,0,0,0,0,0,0,-2.0223,-2.0207,-2.0247,-2.0242,-2.0242,-2.0263,-2.0263,-2.0263,-2.0249,-2.0248,-2.0247,-2.0246,-2.0263,-2.0264,-2.0266,-2.0292,0,0,-2.027,-2.0271,0,0,0,0,0,0,0,0,-2.0222,-2.0224,-2.0243,-2.0242,-2.0242,-2.0253,-2.0254,-2.0273,-2.0249,-2.0246,-2.0247,-2.0246,-2.0261,-2.0262,-2.0267,-2.0293,-2.0294,-2.027,-2.0271,-2.0272,-2.0272,0,0,0,0,0,0,0,-2.0221,-2.0224,-2.0253,-2.0243,-2.0243,-2.0239,-2.0241,-2.0258,-2.0258,-2.0246,-2.0245,-2.0247,-2.026,-2.0266,-2.0268,-2.0294,-2.027,-2.0272,-2.0273,-2.0273,-2.0343,-2.0344,0,0,0,0,0,0,-2.022,-2.0223,-2.0253,-2.0254,-2.023,-2.0241,-2.0243,-2.025,-2.0258,-2.0258,-2.0248,-2.0247,-2.0264,-2.0266,-2.0268,-2.0299,-2.0272,-2.0273,-2.0274,-2.0342,-2.0343,-2.0344,0,0,0,0,0,0,-2.0219,-2.0223,-2.0252,-2.0238,-2.0241,-2.0243,-2.0251,-2.0251,-2.0256,-2.0259,-2.0259,-2.0253,-2.0263,-2.0266,-2.0286,-2.03,-2.0274,-2.0275,-2.0341,-2.0342,-2.0344,-2.0363,0,0,0,0,0,0,-2.0218,-2.0222,-2.0232,-2.0238,-2.0242,-2.027,-2.0252,-2.0252,-2.0259,-2.0257,-2.0264,-2.0265,-2.0263,-2.0284,-2.0288,-2.0301,-2.0277,-2.034,-2.0342,-2.0343,-2.0361,-2.0364,-2.0368,0,0,0,0,0,-2.0217,-2.0237,-2.0233,-2.0236,-2.0254,-2.0271,-2.0273,-2.027,-2.026,-2.027,-2.0272,-2.0264,-2.0298,-2.0287,-2.029,-2.0305,-2.0339,-2.0341,-2.0343,-2.0359,-2.0364,-2.0368,0,0,0,0,0,0,-2.0233,-2.0238,-2.0233,-2.0256,-2.0263,-2.0268,-2.028,-2.0275,-2.0285,-2.0283,-2.0279,-2.0281,-2.0303,-2.0306,-2.0293,-2.0331,-2.0317,-2.032,-2.0328,-2.0332,-2.0336,-2.0334,-2.0278,0,0,0,0,0,-2.0239,-2.0251,-2.0255,-2.0275,-2.0279,-2.0279,-2.0286,-2.0283,-2.0291,-2.0293,-2.0297,-2.0304,-2.0317,-2.0325,-2.0336,-2.0362,-2.0363,-2.0373,-2.0377,-2.038,-2.0382,-2.0396,-2.04,-2.0351,-2.0351,-2.0351,0,0,-2.0252,-2.0256,-2.0264,-2.0279,-2.0284,-2.0297,-2.0282,-2.0296,-2.0306,-2.0296,-2.0315,-2.0318,-2.0326,-2.0349,-2.036,-2.0353,-2.0396,-2.0383,-2.0385,-2.0386,-2.0399,-2.0403,-2.0407,-2.0353,-2.0353,-2.0352,0,0,-2.0282,-2.0287,-2.0304,-2.0309,-2.0317,-2.0317,-2.0321,-2.0328,-2.0329,-2.0349,-2.0341,-2.0353,-2.0374,-2.038,-2.0386,-2.042,-2.0413,-2.0424,-2.0442,-2.0455,-2.0459,-2.0462,-2.0474,-2.0478,-2.0426,-2.0427,-2.0427,0,-2.0297,-2.0316,-2.0313,-2.0328,-2.0335,-2.0326,-2.0344,-2.0349,-2.0361,-2.0366,-2.0358,-2.0384,-2.0389,-2.0414,-2.0422,-2.0427,-2.0432,-2.0422,-2.0459,-2.0462,-2.0465,-2.0476,-2.0481,-2.0428,-2.0428,-2.0427,-2.0427,0,-2.0334,-2.0348,-2.0361,-2.0372,-2.038,-2.0396,-2.0396,-2.0405,-2.0402,-2.0403,-2.0423,-2.0429,-2.0441,-2.0447,-2.0444,-2.0471,-2.0467,-2.0459,-2.0445,-2.0471,-2.0481,-2.0485,-2.0429,-2.0429,-2.0429,-2.0428,0,0,-2.0374,-2.0383,-2.0388,-2.0393,-2.0401,-2.0412,-2.0428,-2.044,-2.0448,-2.0457,-2.047,-2.0489,-2.0481,-2.0488,-2.0486,-2.0498,-2.0524,-2.0489,-2.0489,-2.0495,-2.0554,-2.0559,-2.0564,-2.052,-2.0521,-2.0522,-2.0553,0,-2.0404,-2.0431,-2.0429,-2.0455,-2.0468,-2.0461,-2.0475,-2.0482,-2.0484,-2.0495,-2.0497,-2.051,-2.05,-2.0504,-2.0516,-2.0519,-2.0536,-2.0516,-2.0533,-2.0533,-2.053,-2.057,-2.0575,-2.0604,-2.0557,-2.0558,-2.0558,0,-2.0442,-2.0452,-2.0479,-2.0486,-2.0491,-2.0503,-2.0515,-2.0526,-2.0534,-2.0534,-2.0542,-2.0539,-2.0555,-2.0542,-2.0565,-2.0552,-2.0558,-2.0561,-2.0562,-2.0563,-2.0547,-2.0571,-2.0614,-2.0618,-2.0565,-2.0564,-2.0564,0,-2.0468,-2.0488,-2.0506,-2.0511,-2.0519,-2.0528,-2.0532,-2.054,-2.0547,-2.0557,-2.0562,-2.0574,-2.0581,-2.0591,-2.059,-2.058,-2.0614,-2.06,-2.0615,-2.0615,-2.0621,-2.0621,-2.0665,-2.0627,-2.0627,-2.0627,-2.0627,0,-2.0501,-2.0518,-2.0518,-2.0529,-2.0548,-2.0546,-2.0565,-2.0568,-2.0575,-2.0587,-2.0582,-2.0594,-2.0593,-2.0605,-2.0606,-2.0625,-2.0628,-2.0629,-2.0629,-2.0629,-2.0629,-2.0633,-2.063,-2.0628,-2.0628,-2.0628,-2.0628,0,-2.0532,-2.0533,-2.0553,-2.0559,-2.0561,-2.0575,-2.0581,-2.0592,-2.0594,-2.0609,-2.0613,-2.0616,-2.063,-2.0631,-2.0648,-2.0648,-2.0671,-2.0669,-2.0668,-2.0667,-2.0682,-2.068,-2.073,-2.0736,-2.0695,-2.0695,-2.0695,0,-2.0553,-2.0565,-2.0573,-2.0581,-2.0585,-2.0598,-2.0606,-2.0605,-2.0613,-2.0624,-2.0634,-2.0647,-2.0658,-2.0681,-2.0685,-2.0697,-2.0695,-2.0712,-2.0697,-2.0697,-2.0695,-2.0694,-2.0695,-2.0714,-2.0715,-2.0715,-2.0715,0,-2.0589,-2.0589,-2.06,-2.0611,-2.062,-2.0629,-2.0638,-2.0645,-2.0645,-2.0654,-2.0669,-2.0677,-2.0694,-2.0707,-2.072,-2.0725,-2.072,-2.072,-2.0724,-2.0724,-2.0723,-2.0723,-2.0675,-2.0719,-2.0718,-2.0718,-2.0718,-2.0718,-2.0615,-2.0626,-2.0634,-2.0646,-2.0652,-2.066,-2.0671,-2.0674,-2.0686,-2.0699,-2.0698,-2.0714,-2.0722,-2.0739,-2.0745,-2.0757,-2.0752,-2.0757,-2.0759,-2.076,-2.0761,-2.0721,-2.076,-2.0759,-2.0759,-2.0759,-2.0759,0,-2.0651,-2.0656,-2.0667,-2.0679,-2.0689,-2.0684,-2.0693,-2.0702,-2.0715,-2.0723,-2.0734,-2.0751,-2.0764,-2.0769,-2.0782,-2.0791,-2.079,-2.0795,-2.0794,-2.0795,-2.0766,-2.0761,-2.0796,-2.0796,-2.0796,-2.0796,-2.0796,-2.0796,-2.0671,-2.0689,-2.069,-2.0711,-2.0716,-2.0731,-2.0736,-2.0744,-2.075,-2.0769,-2.078,-2.0783,-2.079,-2.0804,-2.0816,-2.0817,-2.0822,-2.0828,-2.0828,-2.0801,-2.0797,-2.0793,-2.0789,-2.0829,-2.0829,-2.0857,-2.0857,-2.0857]},{"header":{"parameterUnit":"m.s-1","parameterCategory":1,"la1":30.2991,"la2":30.254,"lo1":-89.0895,"lo2":-89.0444,"dy":0.0017,"dx":0.0017,"nx":28,"ny":28,"refTime":"2025-11-20T03:00:00:Z","depth":0,"parameterNumber":3,"parameterNumberName":"V-component_of_WINDS"},"data":[0,0,0,0,0,0,0,0,0,0,0,0,0,0,0,0,0,0,0,0,0,0,0,0,0,0,0,0,0,0,0,0,0,0,0,0,0,0,0,0,0,0,0,0,0,0,0,0,0,0,0,0,0,0,0,0,0,0,3.0576,3.0577,0,3.0642,3.0643,3.0644,3.0615,3.0614,3.0612,3.0611,3.0679,3.0682,3.0685,0,0,0,0,0,0,0,0,0,0,0,0,0,3.0427,3.043,3.0576,3.0577,3.0578,3.0642,3.0643,3.0644,3.0616,3.0614,3.0612,3.061,3.0678,3.0682,3.0686,0,0,0,0,0,0,0,0,0,0,0,0,0,3.0492,3.0431,3.0576,3.0571,3.0572,3.0642,3.0643,3.0644,3.0616,3.0614,3.0611,3.0609,3.0676,3.0681,3.0686,3.0765,0,0,3.0701,3.0703,0,0,0,0,0,0,0,0,3.0489,3.0498,3.0571,3.0572,3.0572,3.0618,3.0615,3.0685,3.0617,3.0599,3.0611,3.0608,3.0661,3.0667,3.0684,3.0768,3.0771,3.0702,3.0705,3.0707,3.0708,0,0,0,0,0,0,0,3.0484,3.0495,3.0602,3.0572,3.0573,3.0567,3.0573,3.0628,3.0643,3.0601,3.0599,3.0607,3.066,3.068,3.0686,3.0772,3.0702,3.0706,3.0709,3.0711,3.0927,3.093,0,0,0,0,0,0,3.0479,3.0491,3.06,3.0604,3.0524,3.0571,3.0579,3.0606,3.0642,3.0645,3.0609,3.0605,3.0672,3.068,3.0688,3.0786,3.0707,3.0711,3.0714,3.0925,3.0928,3.0931,0,0,0,0,0,0,3.0476,3.0489,3.0597,3.0547,3.056,3.0576,3.0607,3.0608,3.0628,3.0648,3.0651,3.0626,3.0671,3.0681,3.0747,3.0787,3.0714,3.0718,3.0921,3.0926,3.0929,3.0979,0,0,0,0,0,0,3.0472,3.0488,3.0518,3.0548,3.0563,3.0655,3.0609,3.0611,3.0636,3.0632,3.0665,3.0668,3.067,3.074,3.0752,3.0793,3.0722,3.0918,3.0923,3.0928,3.0974,3.0985,3.0994,0,0,0,0,0,3.0467,3.0528,3.0519,3.0533,3.06,3.0657,3.0666,3.0666,3.064,3.067,3.0684,3.0667,3.0781,3.0747,3.076,3.0803,3.0915,3.0922,3.0928,3.097,3.0983,3.0993,0,0,0,0,0,0,3.0502,3.0532,3.0523,3.0596,3.0624,3.0652,3.069,3.0679,3.0716,3.0711,3.071,3.0718,3.0786,3.0801,3.0762,3.0883,3.0844,3.0853,3.0871,3.0884,3.0893,3.0889,3.0726,0,0,0,0,0,3.0518,3.0561,3.0585,3.0648,3.0662,3.0674,3.0699,3.0697,3.0726,3.0738,3.0756,3.0786,3.0828,3.0856,3.0896,3.0976,3.0984,3.1012,3.1022,3.103,3.1038,3.1085,3.1098,3.0951,3.0951,3.0951,0,0,3.0552,3.0574,3.0601,3.0655,3.0677,3.0723,3.0684,3.0733,3.0768,3.0745,3.081,3.0824,3.0857,3.0931,3.0964,3.0945,3.1081,3.1038,3.1044,3.1048,3.1092,3.1106,3.1119,3.0956,3.0955,3.0954,0,0,3.0638,3.0658,3.0714,3.0737,3.0771,3.0778,3.0792,3.0822,3.0831,3.0896,3.0881,3.0922,3.0994,3.1019,3.1042,3.114,3.1127,3.1153,3.1204,3.125,3.1261,3.1272,3.131,3.1323,3.1161,3.1161,3.1161,0,3.0677,3.0745,3.0744,3.0795,3.0821,3.0803,3.0861,3.0883,3.0928,3.0947,3.0924,3.1017,3.1038,3.1119,3.1143,3.1161,3.1178,3.115,3.1259,3.127,3.1279,3.1316,3.133,3.1164,3.1164,3.1163,3.1163,0,3.0791,3.0839,3.088,3.0925,3.0955,3.1009,3.1018,3.1048,3.1044,3.1055,3.1122,3.1146,3.1193,3.1211,3.1207,3.1293,3.128,3.1259,3.122,3.1297,3.1331,3.1345,3.1169,3.1168,3.1167,3.1166,0,0,3.0901,3.0947,3.0962,3.0984,3.1021,3.1058,3.1112,3.1158,3.1186,3.1218,3.1265,3.1328,3.1309,3.1334,3.1333,3.1373,3.1453,3.1347,3.1348,3.1368,3.1552,3.157,3.1586,3.1444,3.1446,3.1448,3.1551,0,3.0992,3.1088,3.109,3.1178,3.1223,3.1208,3.1256,3.1284,3.1296,3.1337,3.1349,3.1396,3.1366,3.1382,3.142,3.1435,3.149,3.1427,3.149,3.1492,3.1485,3.1603,3.1622,3.1717,3.1564,3.1566,3.1567,0,3.1111,3.1149,3.1242,3.1275,3.1294,3.1337,3.1381,3.1419,3.1452,3.1458,3.1488,3.1482,3.1539,3.1497,3.1577,3.1534,3.156,3.1571,3.1575,3.1583,3.1536,3.1617,3.1747,3.1763,3.1588,3.1586,3.1585,0,3.1186,3.1259,3.1325,3.1344,3.1383,3.1415,3.1433,3.1463,3.1491,3.153,3.1549,3.1592,3.1617,3.1652,3.1659,3.1627,3.174,3.1698,3.1748,3.1749,3.1774,3.1773,3.1913,3.1787,3.1786,3.1786,3.1786,0,3.1289,3.1347,3.136,3.1401,3.1466,3.1468,3.1533,3.1549,3.1577,3.1621,3.161,3.1652,3.1657,3.1701,3.1706,3.1774,3.1784,3.1792,3.1793,3.1795,3.1794,3.1813,3.1808,3.179,3.1789,3.1788,3.1788,0,3.1384,3.1395,3.1466,3.1499,3.1508,3.1555,3.1583,3.1623,3.1634,3.1691,3.1705,3.1722,3.1774,3.1783,3.1843,3.1847,3.1929,3.1921,3.1918,3.1918,3.1969,3.1966,3.2129,3.2151,3.2007,3.2008,3.201,0,3.1451,3.1496,3.1533,3.1563,3.1583,3.1629,3.1659,3.1663,3.1694,3.1737,3.1772,3.1823,3.1864,3.1947,3.1966,3.2013,3.2008,3.2062,3.2015,3.2017,3.2013,3.2012,3.2018,3.2072,3.2074,3.2075,3.2076,0,3.1569,3.1572,3.1615,3.1661,3.1697,3.1732,3.1767,3.1791,3.18,3.1836,3.1889,3.1921,3.1984,3.2035,3.2083,3.2102,3.2092,3.209,3.2105,3.2108,3.2106,3.2111,3.1946,3.2087,3.2086,3.2085,3.2084,3.2084,3.1653,3.1694,3.1728,3.1777,3.1803,3.1836,3.1876,3.1892,3.1937,3.1989,3.1988,3.2047,3.2081,3.2144,3.2167,3.2214,3.2197,3.2217,3.2223,3.2229,3.2236,3.2096,3.2222,3.2222,3.2221,3.2221,3.2221,0,3.1773,3.1795,3.184,3.1889,3.1928,3.1914,3.1952,3.1986,3.2038,3.2071,3.2112,3.2175,3.2225,3.2248,3.2298,3.2332,3.2328,3.2345,3.2344,3.2349,3.2246,3.223,3.2347,3.2347,3.2347,3.2347,3.2347,3.2347,3.1841,3.191,3.1917,3.2,3.2021,3.2079,3.2102,3.2133,3.216,3.223,3.2272,3.2287,3.2317,3.2369,3.2416,3.2421,3.2442,3.2461,3.2465,3.2369,3.2356,3.2344,3.2329,3.2465,3.2465,3.2565,3.2565,3.2566]}]]